contact:dominique.lefevre@mio.osupytheas.fr, maurice.libes@osupytheas.fr, didier.mallarino@osupytheas.fr
Project:EMSO http://www.emso-fr.org/EMSO-France
Depth: 2436.0 m
Title:EMSO Ligure Ouest : Data MII capteur MICROCAT
DateTime_Computer,Latitude,Longitude,Temperature,Conductivity,Pressure,DateTime_Instrument
DateTime_Computer,Latitude,Longitude,degC,S m-1,dbar,DateTime_Instrument
2022-04-10T00:01:16Z,42.805,6.029,13.2998,4.60034,2470.507,2022-4-10T02:02:54Z
2022-04-10T00:04:19Z,42.805,6.029,13.2996,4.60036,2470.553,2022-4-10T02:05:57Z
2022-04-10T00:07:22Z,42.805,6.029,13.3002,4.60034,2470.577,2022-4-10T02:09:00Z
2022-04-10T00:10:25Z,42.805,6.029,13.2996,4.60035,2470.544,2022-4-10T02:12:03Z
2022-04-10T00:13:28Z,42.805,6.029,13.2999,4.60034,2470.544,2022-4-10T02:15:06Z
2022-04-10T00:16:31Z,42.805,6.029,13.2997,4.60035,2470.516,2022-4-10T02:18:09Z
2022-04-10T00:19:34Z,42.805,6.029,13.3002,4.60037,2470.53,2022-4-10T02:21:12Z
2022-04-10T00:22:37Z,42.805,6.029,13.2996,4.60034,2470.53,2022-4-10T02:24:15Z
2022-04-10T00:25:41Z,42.805,6.029,13.2998,4.60033,2470.567,2022-4-10T02:27:19Z
2022-04-10T00:28:44Z,42.805,6.029,13.2996,4.60036,2470.553,2022-4-10T02:30:22Z
2022-04-10T00:31:47Z,42.805,6.029,13.2995,4.60035,2470.544,2022-4-10T02:33:25Z
2022-04-10T00:34:50Z,42.805,6.029,13.2998,4.60034,2470.507,2022-4-10T02:36:28Z
2022-04-10T00:37:53Z,42.805,6.029,13.2998,4.60034,2470.591,2022-4-10T02:39:31Z
2022-04-10T00:40:56Z,42.805,6.029,13.2995,4.60035,2470.553,2022-4-10T02:42:34Z
2022-04-10T00:43:59Z,42.805,6.029,13.2997,4.60035,2470.53,2022-4-10T02:45:37Z
2022-04-10T00:47:02Z,42.805,6.029,13.2997,4.60035,2470.567,2022-4-10T02:48:40Z
2022-04-10T00:50:06Z,42.805,6.029,13.2998,4.60035,2470.544,2022-4-10T02:51:44Z
2022-04-10T00:53:09Z,42.805,6.029,13.2998,4.60039,2470.553,2022-4-10T02:54:47Z
2022-04-10T00:56:12Z,42.805,6.029,13.3000,4.60035,2470.544,2022-4-10T02:57:50Z
2022-04-10T00:59:15Z,42.805,6.029,13.2997,4.60035,2470.544,2022-4-10T03:00:53Z
2022-04-10T01:02:18Z,42.805,6.029,13.2998,4.60035,2470.591,2022-4-10T03:03:56Z
2022-04-10T01:05:21Z,42.805,6.029,13.2998,4.60036,2470.577,2022-4-10T03:06:59Z
2022-04-10T01:08:24Z,42.805,6.029,13.3000,4.60035,2470.553,2022-4-10T03:10:02Z
2022-04-10T01:11:27Z,42.805,6.029,13.2997,4.60035,2470.53,2022-4-10T03:13:05Z
2022-04-10T01:14:31Z,42.805,6.029,13.3001,4.60037,2470.53,2022-4-10T03:16:09Z
2022-04-10T01:17:34Z,42.805,6.029,13.2996,4.60036,2470.591,2022-4-10T03:19:12Z
2022-04-10T01:20:37Z,42.805,6.029,13.3000,4.60036,2470.553,2022-4-10T03:22:15Z
2022-04-10T01:23:40Z,42.805,6.029,13.3000,4.60036,2470.507,2022-4-10T03:25:18Z
2022-04-10T01:26:43Z,42.805,6.029,13.2998,4.60035,2470.544,2022-4-10T03:28:21Z
2022-04-10T01:29:46Z,42.805,6.029,13.2997,4.60033,2470.563,2022-4-10T03:31:24Z
2022-04-10T01:32:49Z,42.805,6.029,13.2998,4.60034,2470.614,2022-4-10T03:34:27Z
2022-04-10T01:35:52Z,42.805,6.029,13.2999,4.60033,2470.567,2022-4-10T03:37:30Z
2022-04-10T01:38:56Z,42.805,6.029,13.2998,4.60035,2470.544,2022-4-10T03:40:34Z
2022-04-10T01:41:59Z,42.805,6.029,13.2998,4.60034,2470.553,2022-4-10T03:43:37Z
2022-04-10T01:45:02Z,42.805,6.029,13.3000,4.60035,2470.577,2022-4-10T03:46:40Z
2022-04-10T01:48:05Z,42.805,6.029,13.2999,4.60034,2470.591,2022-4-10T03:49:43Z
2022-04-10T01:51:08Z,42.805,6.029,13.2997,4.60035,2470.577,2022-4-10T03:52:46Z
2022-04-10T01:54:11Z,42.805,6.029,13.2998,4.60033,2470.553,2022-4-10T03:55:49Z
2022-04-10T01:57:14Z,42.805,6.029,13.2998,4.60035,2470.553,2022-4-10T03:58:52Z
2022-04-10T02:00:17Z,42.805,6.029,13.3001,4.60033,2470.553,2022-4-10T04:01:55Z
2022-04-10T02:03:20Z,42.805,6.029,13.2999,4.60034,2470.577,2022-4-10T04:04:58Z
2022-04-10T02:06:24Z,42.805,6.029,13.2996,4.60034,2470.53,2022-4-10T04:08:02Z
2022-04-10T02:09:27Z,42.805,6.029,13.2998,4.60036,2470.567,2022-4-10T04:11:05Z
2022-04-10T02:12:30Z,42.805,6.029,13.2996,4.60034,2470.53,2022-4-10T04:14:08Z
2022-04-10T02:15:33Z,42.805,6.029,13.3000,4.60033,2470.567,2022-4-10T04:17:11Z
2022-04-10T02:18:36Z,42.805,6.029,13.3000,4.60036,2470.577,2022-4-10T04:20:14Z
2022-04-10T02:21:39Z,42.805,6.029,13.2997,4.60036,2470.577,2022-4-10T04:23:17Z
2022-04-10T02:24:42Z,42.805,6.029,13.2998,4.60034,2470.577,2022-4-10T04:26:20Z
2022-04-10T02:27:45Z,42.805,6.029,13.2996,4.60035,2470.6,2022-4-10T04:29:23Z
2022-04-10T02:30:49Z,42.805,6.029,13.2998,4.60035,2470.567,2022-4-10T04:32:27Z
2022-04-10T02:33:52Z,42.805,6.029,13.2999,4.60034,2470.553,2022-4-10T04:35:30Z
2022-04-10T02:36:55Z,42.805,6.029,13.2996,4.60034,2470.577,2022-4-10T04:38:33Z
2022-04-10T02:39:58Z,42.805,6.029,13.2997,4.60034,2470.577,2022-4-10T04:41:36Z
2022-04-10T02:43:01Z,42.805,6.029,13.3003,4.60034,2470.577,2022-4-10T04:44:39Z
2022-04-10T02:46:04Z,42.805,6.029,13.2993,4.60034,2470.591,2022-4-10T04:47:42Z
2022-04-10T02:49:07Z,42.805,6.029,13.3001,4.60034,2470.553,2022-4-10T04:50:45Z
2022-04-10T02:52:10Z,42.805,6.029,13.2997,4.60035,2470.591,2022-4-10T04:53:48Z
2022-04-10T02:55:14Z,42.805,6.029,13.3000,4.60035,2470.553,2022-4-10T04:56:52Z
2022-04-10T02:58:17Z,42.805,6.029,13.3000,4.60036,2470.577,2022-4-10T04:59:55Z
2022-04-10T03:01:20Z,42.805,6.029,13.2998,4.60034,2470.577,2022-4-10T05:02:58Z
2022-04-10T03:04:23Z,42.805,6.029,13.2998,4.60035,2470.591,2022-4-10T05:06:01Z
2022-04-10T03:07:26Z,42.805,6.029,13.2999,4.60035,2470.553,2022-4-10T05:09:04Z
2022-04-10T03:10:29Z,42.805,6.029,13.3000,4.60035,2470.591,2022-4-10T05:12:07Z
2022-04-10T03:13:32Z,42.805,6.029,13.2997,4.60034,2470.553,2022-4-10T05:15:10Z
2022-04-10T03:16:35Z,42.805,6.029,13.2999,4.60035,2470.6,2022-4-10T05:18:13Z
2022-04-10T03:19:38Z,42.805,6.029,13.2998,4.60035,2470.53,2022-4-10T05:21:16Z
2022-04-10T03:22:42Z,42.805,6.029,13.3000,4.60036,2470.553,2022-4-10T05:24:20Z
2022-04-10T03:25:45Z,42.805,6.029,13.2998,4.60035,2470.567,2022-4-10T05:27:23Z
2022-04-10T03:28:48Z,42.805,6.029,13.2998,4.60033,2470.577,2022-4-10T05:30:26Z
2022-04-10T03:31:51Z,42.805,6.029,13.2999,4.60034,2470.591,2022-4-10T05:33:29Z
2022-04-10T03:34:54Z,42.805,6.029,13.3000,4.60035,2470.567,2022-4-10T05:36:32Z
2022-04-10T03:37:57Z,42.805,6.029,13.2998,4.60035,2470.577,2022-4-10T05:39:35Z
2022-04-10T03:41:00Z,42.805,6.029,13.2999,4.60033,2470.563,2022-4-10T05:42:38Z
2022-04-10T03:44:03Z,42.805,6.029,13.2998,4.60036,2470.614,2022-4-10T05:45:41Z
2022-04-10T03:47:07Z,42.805,6.029,13.3000,4.60034,2470.6,2022-4-10T05:48:45Z
2022-04-10T03:50:10Z,42.805,6.029,13.3002,4.60034,2470.553,2022-4-10T05:51:48Z
2022-04-10T03:53:13Z,42.805,6.029,13.2996,4.60035,2470.567,2022-4-10T05:54:51Z
2022-04-10T03:56:16Z,42.805,6.029,13.3000,4.60034,2470.591,2022-4-10T05:57:54Z
2022-04-10T03:59:19Z,42.805,6.029,13.3001,4.60033,2470.591,2022-4-10T06:00:57Z
2022-04-10T04:02:22Z,42.805,6.029,13.2998,4.60033,2470.614,2022-4-10T06:04:00Z
2022-04-10T04:05:25Z,42.805,6.029,13.3000,4.60035,2470.591,2022-4-10T06:07:03Z
2022-04-10T04:08:28Z,42.805,6.029,13.3000,4.60034,2470.614,2022-4-10T06:10:06Z
2022-04-10T04:11:32Z,42.805,6.029,13.3000,4.60033,2470.553,2022-4-10T06:13:10Z
2022-04-10T04:14:35Z,42.805,6.029,13.3001,4.60033,2470.577,2022-4-10T06:16:13Z
2022-04-10T04:17:38Z,42.805,6.029,13.2998,4.60036,2470.577,2022-4-10T06:19:16Z
2022-04-10T04:20:41Z,42.805,6.029,13.2998,4.60035,2470.591,2022-4-10T06:22:19Z
2022-04-10T04:23:44Z,42.805,6.029,13.2999,4.60033,2470.591,2022-4-10T06:25:22Z
2022-04-10T04:26:47Z,42.805,6.029,13.2996,4.60034,2470.614,2022-4-10T06:28:25Z
2022-04-10T04:29:50Z,42.805,6.029,13.2998,4.60033,2470.553,2022-4-10T06:31:28Z
2022-04-10T04:32:53Z,42.805,6.029,13.3001,4.60033,2470.614,2022-4-10T06:34:31Z
2022-04-10T04:35:56Z,42.805,6.029,13.2999,4.60033,2470.567,2022-4-10T06:37:34Z
2022-04-10T04:39:00Z,42.805,6.029,13.2998,4.60036,2470.567,2022-4-10T06:40:38Z
2022-04-10T04:42:03Z,42.805,6.029,13.3000,4.60036,2470.591,2022-4-10T06:43:41Z
2022-04-10T04:45:06Z,42.805,6.029,13.3002,4.60033,2470.577,2022-4-10T06:46:44Z
2022-04-10T04:48:09Z,42.805,6.029,13.2998,4.60033,2470.577,2022-4-10T06:49:47Z
2022-04-10T04:51:12Z,42.805,6.029,13.2999,4.60034,2470.577,2022-4-10T06:52:50Z
2022-04-10T04:54:15Z,42.805,6.029,13.2997,4.60035,2470.544,2022-4-10T06:55:53Z
2022-04-10T04:57:18Z,42.805,6.029,13.2997,4.60035,2470.553,2022-4-10T06:58:56Z
2022-04-10T05:00:21Z,42.805,6.029,13.3000,4.60034,2470.591,2022-4-10T07:01:59Z
2022-04-10T05:03:25Z,42.805,6.029,13.3002,4.60036,2470.577,2022-4-10T07:05:03Z
2022-04-10T05:06:28Z,42.805,6.029,13.3000,4.60035,2470.577,2022-4-10T07:08:06Z
2022-04-10T05:09:31Z,42.805,6.029,13.3000,4.60034,2470.614,2022-4-10T07:11:09Z
2022-04-10T05:12:34Z,42.805,6.029,13.2995,4.60035,2470.553,2022-4-10T07:14:12Z
2022-04-10T05:15:37Z,42.805,6.029,13.2999,4.60033,2470.614,2022-4-10T07:17:15Z
2022-04-10T05:18:40Z,42.805,6.029,13.2998,4.60035,2470.591,2022-4-10T07:20:18Z
2022-04-10T05:21:43Z,42.805,6.029,13.2999,4.60033,2470.577,2022-4-10T07:23:21Z
2022-04-10T05:24:46Z,42.805,6.029,13.2995,4.60033,2470.591,2022-4-10T07:26:24Z
2022-04-10T05:27:50Z,42.805,6.029,13.2998,4.60033,2470.567,2022-4-10T07:29:28Z
2022-04-10T05:30:53Z,42.805,6.029,13.2999,4.60034,2470.567,2022-4-10T07:32:31Z
2022-04-10T05:33:56Z,42.805,6.029,13.2996,4.60033,2470.553,2022-4-10T07:35:34Z
2022-04-10T05:36:59Z,42.805,6.029,13.2998,4.60035,2470.553,2022-4-10T07:38:37Z
2022-04-10T05:40:02Z,42.805,6.029,13.3000,4.60036,2470.567,2022-4-10T07:41:40Z
2022-04-10T05:43:05Z,42.805,6.029,13.2999,4.60034,2470.52,2022-4-10T07:44:43Z
2022-04-10T05:46:08Z,42.805,6.029,13.3000,4.60034,2470.553,2022-4-10T07:47:46Z
2022-04-10T05:49:11Z,42.805,6.029,13.2998,4.60033,2470.577,2022-4-10T07:50:49Z
2022-04-10T05:52:15Z,42.805,6.029,13.2998,4.60034,2470.553,2022-4-10T07:53:53Z
2022-04-10T05:55:18Z,42.805,6.029,13.2998,4.60034,2470.577,2022-4-10T07:56:56Z
2022-04-10T05:58:21Z,42.805,6.029,13.2999,4.60036,2470.53,2022-4-10T07:59:59Z
2022-04-10T06:01:24Z,42.805,6.029,13.2997,4.60036,2470.52,2022-4-10T08:03:02Z
2022-04-10T06:04:27Z,42.805,6.029,13.2998,4.60035,2470.544,2022-4-10T08:06:05Z
2022-04-10T06:07:30Z,42.805,6.029,13.2998,4.60033,2470.53,2022-4-10T08:09:08Z
2022-04-10T06:10:33Z,42.805,6.029,13.3000,4.60035,2470.53,2022-4-10T08:12:11Z
2022-04-10T06:13:36Z,42.805,6.029,13.3000,4.60035,2470.53,2022-4-10T08:15:14Z
2022-04-10T06:16:40Z,42.805,6.029,13.2998,4.60034,2470.544,2022-4-10T08:18:18Z
2022-04-10T06:19:43Z,42.805,6.029,13.3001,4.60034,2470.53,2022-4-10T08:21:21Z
2022-04-10T06:22:46Z,42.805,6.029,13.2998,4.60033,2470.53,2022-4-10T08:24:24Z
2022-04-10T06:25:49Z,42.805,6.029,13.2998,4.60033,2470.567,2022-4-10T08:27:27Z
2022-04-10T06:28:52Z,42.805,6.029,13.2998,4.60034,2470.567,2022-4-10T08:30:30Z
2022-04-10T06:31:55Z,42.805,6.029,13.2998,4.60033,2470.497,2022-4-10T08:33:33Z
2022-04-10T06:34:58Z,42.805,6.029,13.2997,4.60033,2470.53,2022-4-10T08:36:36Z
2022-04-10T06:38:01Z,42.805,6.029,13.2998,4.60036,2470.544,2022-4-10T08:39:39Z
2022-04-10T06:41:04Z,42.805,6.029,13.3000,4.60036,2470.493,2022-4-10T08:42:42Z
2022-04-10T06:44:08Z,42.805,6.029,13.2998,4.60033,2470.483,2022-4-10T08:45:46Z
2022-04-10T06:47:11Z,42.805,6.029,13.2998,4.60034,2470.507,2022-4-10T08:48:49Z
2022-04-10T06:50:14Z,42.805,6.029,13.2993,4.60035,2470.507,2022-4-10T08:51:52Z
2022-04-10T06:53:17Z,42.805,6.029,13.2994,4.60033,2470.53,2022-4-10T08:54:55Z
2022-04-10T06:56:20Z,42.805,6.029,13.2999,4.60035,2470.507,2022-4-10T08:57:58Z
2022-04-10T06:59:23Z,42.805,6.029,13.2996,4.60036,2470.52,2022-4-10T09:01:01Z
2022-04-10T07:02:26Z,42.805,6.029,13.3000,4.60033,2470.474,2022-4-10T09:04:04Z
2022-04-10T07:05:29Z,42.805,6.029,13.2997,4.60033,2470.483,2022-4-10T09:07:07Z
2022-04-10T07:08:33Z,42.805,6.029,13.2998,4.60033,2470.52,2022-4-10T09:10:11Z
2022-04-10T07:11:36Z,42.805,6.029,13.3000,4.60037,2470.483,2022-4-10T09:13:14Z
2022-04-10T07:14:39Z,42.805,6.029,13.2999,4.60036,2470.483,2022-4-10T09:16:17Z
2022-04-10T07:17:42Z,42.805,6.029,13.3000,4.60033,2470.497,2022-4-10T09:19:20Z
2022-04-10T07:20:45Z,42.805,6.029,13.2997,4.60036,2470.483,2022-4-10T09:22:23Z
2022-04-10T07:23:48Z,42.805,6.029,13.3000,4.60035,2470.483,2022-4-10T09:25:26Z
2022-04-10T07:26:51Z,42.805,6.029,13.3003,4.60037,2470.507,2022-4-10T09:28:29Z
2022-04-10T07:29:54Z,42.805,6.029,13.2998,4.60037,2470.483,2022-4-10T09:31:32Z
2022-04-10T07:32:58Z,42.805,6.029,13.3000,4.60036,2470.52,2022-4-10T09:34:36Z
2022-04-10T07:36:01Z,42.805,6.029,13.3000,4.60035,2470.544,2022-4-10T09:37:39Z
2022-04-10T07:39:04Z,42.805,6.029,13.3000,4.60033,2470.483,2022-4-10T09:40:42Z
2022-04-10T07:42:07Z,42.805,6.029,13.2997,4.60034,2470.497,2022-4-10T09:43:45Z
2022-04-10T07:45:10Z,42.805,6.029,13.3002,4.60033,2470.483,2022-4-10T09:46:48Z
2022-04-10T07:48:13Z,42.805,6.029,13.3000,4.60033,2470.483,2022-4-10T09:49:51Z
2022-04-10T07:51:16Z,42.805,6.029,13.2999,4.60034,2470.497,2022-4-10T09:52:54Z
2022-04-10T07:54:19Z,42.805,6.029,13.3000,4.60035,2470.483,2022-4-10T09:55:57Z
2022-04-10T07:57:23Z,42.805,6.029,13.2997,4.60035,2470.497,2022-4-10T09:59:01Z
2022-04-10T08:00:26Z,42.805,6.029,13.2999,4.60034,2470.483,2022-4-10T10:02:04Z
2022-04-10T08:03:29Z,42.805,6.029,13.2997,4.60035,2470.483,2022-4-10T10:05:07Z
2022-04-10T08:06:32Z,42.805,6.029,13.2993,4.60036,2470.52,2022-4-10T10:08:10Z
2022-04-10T08:09:35Z,42.805,6.029,13.2997,4.60034,2470.53,2022-4-10T10:11:13Z
2022-04-10T08:12:38Z,42.805,6.029,13.2993,4.60033,2470.53,2022-4-10T10:14:16Z
2022-04-10T08:15:41Z,42.805,6.029,13.2998,4.60034,2470.483,2022-4-10T10:17:19Z
2022-04-10T08:18:44Z,42.805,6.029,13.3000,4.60034,2470.52,2022-4-10T10:20:22Z
2022-04-10T08:21:47Z,42.805,6.029,13.3000,4.60035,2470.52,2022-4-10T10:23:25Z
2022-04-10T08:24:51Z,42.805,6.029,13.3002,4.60033,2470.483,2022-4-10T10:26:29Z
2022-04-10T08:27:54Z,42.805,6.029,13.2999,4.60033,2470.483,2022-4-10T10:29:32Z
2022-04-10T08:30:57Z,42.805,6.029,13.3003,4.60037,2470.497,2022-4-10T10:32:35Z
2022-04-10T08:34:00Z,42.805,6.029,13.3000,4.60033,2470.483,2022-4-10T10:35:38Z
2022-04-10T08:37:03Z,42.805,6.029,13.2998,4.60033,2470.483,2022-4-10T10:38:41Z
2022-04-10T08:40:06Z,42.805,6.029,13.2999,4.60035,2470.52,2022-4-10T10:41:44Z
2022-04-10T08:43:09Z,42.805,6.029,13.3001,4.60036,2470.52,2022-4-10T10:44:47Z
2022-04-10T08:46:13Z,42.805,6.029,13.3001,4.60033,2470.52,2022-4-10T10:47:51Z
2022-04-10T08:49:16Z,42.805,6.029,13.2996,4.60033,2470.497,2022-4-10T10:50:54Z
2022-04-10T08:52:19Z,42.805,6.029,13.2998,4.60036,2470.497,2022-4-10T10:53:57Z
2022-04-10T08:55:22Z,42.805,6.029,13.2996,4.60036,2470.497,2022-4-10T10:57:00Z
2022-04-10T08:58:25Z,42.805,6.029,13.2998,4.60033,2470.483,2022-4-10T11:00:03Z
2022-04-10T09:01:28Z,42.805,6.029,13.2996,4.60032,2470.46,2022-4-10T11:03:06Z
2022-04-10T09:04:31Z,42.805,6.029,13.3003,4.60032,2470.483,2022-4-10T11:06:09Z
2022-04-10T09:07:34Z,42.805,6.029,13.2999,4.60036,2470.46,2022-4-10T11:09:12Z
2022-04-10T09:10:37Z,42.805,6.029,13.2999,4.60033,2470.483,2022-4-10T11:12:15Z
2022-04-10T09:13:41Z,42.805,6.029,13.2998,4.60035,2470.483,2022-4-10T11:15:19Z
2022-04-10T09:16:44Z,42.805,6.029,13.2996,4.60033,2470.483,2022-4-10T11:18:22Z
2022-04-10T09:19:47Z,42.805,6.029,13.2999,4.60036,2470.497,2022-4-10T11:21:25Z
2022-04-10T09:22:50Z,42.805,6.029,13.2998,4.60033,2470.46,2022-4-10T11:24:28Z
2022-04-10T09:25:53Z,42.805,6.029,13.2998,4.60033,2470.474,2022-4-10T11:27:31Z
2022-04-10T09:28:56Z,42.805,6.029,13.3000,4.60033,2470.483,2022-4-10T11:30:34Z
2022-04-10T09:31:59Z,42.805,6.029,13.2998,4.60034,2470.46,2022-4-10T11:33:37Z
2022-04-10T09:35:03Z,42.805,6.029,13.2997,4.60034,2470.46,2022-4-10T11:36:41Z
2022-04-10T09:38:06Z,42.805,6.029,13.3001,4.60033,2470.483,2022-4-10T11:39:44Z
2022-04-10T09:41:09Z,42.805,6.029,13.2996,4.60033,2470.483,2022-4-10T11:42:47Z
2022-04-10T09:44:12Z,42.805,6.029,13.2993,4.60033,2470.483,2022-4-10T11:45:50Z
2022-04-10T09:47:15Z,42.805,6.029,13.2997,4.60033,2470.52,2022-4-10T11:48:53Z
2022-04-10T09:50:18Z,42.805,6.029,13.2996,4.60031,2470.45,2022-4-10T11:51:56Z
2022-04-10T09:53:21Z,42.805,6.029,13.3004,4.60033,2470.46,2022-4-10T11:54:59Z
2022-04-10T09:56:24Z,42.805,6.029,13.2997,4.60033,2470.46,2022-4-10T11:58:02Z
2022-04-10T09:59:28Z,42.805,6.029,13.2998,4.60036,2470.46,2022-4-10T12:01:06Z
2022-04-10T10:02:31Z,42.805,6.029,13.2998,4.60036,2470.483,2022-4-10T12:04:09Z
2022-04-10T10:05:34Z,42.805,6.029,13.3000,4.60033,2470.507,2022-4-10T12:07:12Z
2022-04-10T10:08:37Z,42.805,6.029,13.2998,4.60036,2470.47,2022-4-10T12:10:15Z
2022-04-10T10:11:40Z,42.805,6.029,13.3000,4.60033,2470.46,2022-4-10T12:13:18Z
2022-04-10T10:14:43Z,42.805,6.029,13.2997,4.60033,2470.507,2022-4-10T12:16:21Z
2022-04-10T10:17:46Z,42.805,6.029,13.2996,4.60035,2470.483,2022-4-10T12:19:24Z
2022-04-10T10:20:49Z,42.805,6.029,13.2995,4.60035,2470.483,2022-4-10T12:22:27Z
2022-04-10T10:23:53Z,42.805,6.029,13.2998,4.60033,2470.474,2022-4-10T12:25:31Z
2022-04-10T10:26:56Z,42.805,6.029,13.2997,4.60033,2470.483,2022-4-10T12:28:34Z
2022-04-10T10:29:59Z,42.805,6.029,13.2998,4.60034,2470.46,2022-4-10T12:31:37Z
2022-04-10T10:33:02Z,42.805,6.029,13.2996,4.60032,2470.483,2022-4-10T12:34:40Z
2022-04-10T10:36:05Z,42.805,6.029,13.2998,4.60033,2470.483,2022-4-10T12:37:43Z
2022-04-10T10:39:08Z,42.805,6.029,13.2998,4.60033,2470.474,2022-4-10T12:40:46Z
2022-04-10T10:42:11Z,42.805,6.029,13.2997,4.60034,2470.437,2022-4-10T12:43:49Z
2022-04-10T10:45:14Z,42.805,6.029,13.2995,4.60033,2470.497,2022-4-10T12:46:52Z
2022-04-10T10:48:18Z,42.805,6.029,13.3000,4.60036,2470.483,2022-4-10T12:49:56Z
2022-04-10T10:51:21Z,42.805,6.029,13.2997,4.60035,2470.437,2022-4-10T12:52:59Z
2022-04-10T10:54:24Z,42.805,6.029,13.2998,4.60035,2470.45,2022-4-10T12:56:02Z
2022-04-10T10:57:27Z,42.805,6.029,13.2998,4.60037,2470.46,2022-4-10T12:59:05Z
2022-04-10T11:00:30Z,42.805,6.029,13.2996,4.60034,2470.497,2022-4-10T13:02:08Z
2022-04-10T11:03:33Z,42.805,6.029,13.2996,4.60035,2470.474,2022-4-10T13:05:11Z
2022-04-10T11:06:36Z,42.805,6.029,13.2998,4.60035,2470.483,2022-4-10T13:08:14Z
2022-04-10T11:09:39Z,42.805,6.029,13.2996,4.60034,2470.483,2022-4-10T13:11:17Z
2022-04-10T11:12:43Z,42.805,6.029,13.2995,4.60034,2470.497,2022-4-10T13:14:21Z
2022-04-10T11:15:46Z,42.805,6.029,13.3001,4.60033,2470.483,2022-4-10T13:17:24Z
2022-04-10T11:18:49Z,42.805,6.029,13.2998,4.60033,2470.437,2022-4-10T13:20:27Z
2022-04-10T11:21:52Z,42.805,6.029,13.2998,4.60036,2470.46,2022-4-10T13:23:30Z
2022-04-10T11:24:55Z,42.805,6.029,13.2996,4.60036,2470.46,2022-4-10T13:26:33Z
2022-04-10T11:27:58Z,42.805,6.029,13.2997,4.60035,2470.483,2022-4-10T13:29:36Z
2022-04-10T11:31:01Z,42.805,6.029,13.2997,4.60032,2470.46,2022-4-10T13:32:39Z
2022-04-10T11:34:04Z,42.805,6.029,13.2996,4.60034,2470.507,2022-4-10T13:35:42Z
2022-04-10T11:37:08Z,42.805,6.029,13.2998,4.60033,2470.46,2022-4-10T13:38:46Z
2022-04-10T11:40:11Z,42.805,6.029,13.2998,4.60034,2470.437,2022-4-10T13:41:49Z
2022-04-10T11:43:14Z,42.805,6.029,13.2999,4.60034,2470.474,2022-4-10T13:44:52Z
2022-04-10T11:46:17Z,42.805,6.029,13.2999,4.60035,2470.45,2022-4-10T13:47:55Z
2022-04-10T11:49:20Z,42.805,6.029,13.2997,4.60037,2470.46,2022-4-10T13:50:58Z
2022-04-10T11:52:23Z,42.805,6.029,13.3000,4.60034,2470.437,2022-4-10T13:54:01Z
2022-04-10T11:55:26Z,42.805,6.029,13.2999,4.60034,2470.46,2022-4-10T13:57:04Z
2022-04-10T11:58:29Z,42.805,6.029,13.3001,4.60036,2470.474,2022-4-10T14:00:07Z
2022-04-10T12:01:33Z,42.805,6.029,13.3001,4.60035,2470.46,2022-4-10T14:03:11Z
2022-04-10T12:04:36Z,42.805,6.029,13.2997,4.60035,2470.46,2022-4-10T14:06:14Z
2022-04-10T12:07:39Z,42.805,6.029,13.2999,4.60034,2470.437,2022-4-10T14:09:17Z
2022-04-10T12:10:42Z,42.805,6.029,13.2996,4.60034,2470.437,2022-4-10T14:12:20Z
2022-04-10T12:13:45Z,42.805,6.029,13.3000,4.60034,2470.45,2022-4-10T14:15:23Z
2022-04-10T12:16:48Z,42.805,6.029,13.3001,4.60036,2470.483,2022-4-10T14:18:26Z
2022-04-10T12:19:51Z,42.805,6.029,13.3001,4.60037,2470.474,2022-4-10T14:21:29Z
2022-04-10T12:22:54Z,42.805,6.029,13.2998,4.60038,2470.46,2022-4-10T14:24:32Z
2022-04-10T12:25:58Z,42.805,6.029,13.2999,4.60034,2470.437,2022-4-10T14:27:36Z
2022-04-10T12:29:01Z,42.805,6.029,13.3000,4.60034,2470.474,2022-4-10T14:30:39Z
2022-04-10T12:32:04Z,42.805,6.029,13.2997,4.60037,2470.474,2022-4-10T14:33:42Z
2022-04-10T12:35:07Z,42.805,6.029,13.2998,4.60041,2470.47,2022-4-10T14:36:45Z
2022-04-10T12:38:10Z,42.805,6.029,13.2997,4.60035,2470.474,2022-4-10T14:39:48Z
2022-04-10T12:41:13Z,42.805,6.029,13.2997,4.60034,2470.46,2022-4-10T14:42:51Z
2022-04-10T12:44:16Z,42.805,6.029,13.2996,4.60039,2470.46,2022-4-10T14:45:54Z
2022-04-10T12:47:19Z,42.805,6.029,13.2997,4.60036,2470.45,2022-4-10T14:48:58Z
2022-04-10T12:50:23Z,42.805,6.029,13.2998,4.60035,2470.46,2022-4-10T14:52:01Z
2022-04-10T12:53:26Z,42.805,6.029,13.2996,4.60037,2470.46,2022-4-10T14:55:04Z
2022-04-10T12:56:29Z,42.805,6.029,13.2998,4.60035,2470.437,2022-4-10T14:58:07Z
2022-04-10T12:59:32Z,42.805,6.029,13.2995,4.60036,2470.483,2022-4-10T15:01:10Z
2022-04-10T13:02:35Z,42.805,6.029,13.2998,4.60035,2470.45,2022-4-10T15:04:13Z
2022-04-10T13:05:38Z,42.805,6.029,13.2997,4.60034,2470.483,2022-4-10T15:07:16Z
2022-04-10T13:08:41Z,42.805,6.029,13.2998,4.60035,2470.46,2022-4-10T15:10:19Z
2022-04-10T13:11:44Z,42.805,6.029,13.3000,4.60034,2470.474,2022-4-10T15:13:22Z
2022-04-10T13:14:48Z,42.805,6.029,13.2998,4.60034,2470.437,2022-4-10T15:16:26Z
2022-04-10T13:17:51Z,42.805,6.029,13.3000,4.60034,2470.46,2022-4-10T15:19:29Z
2022-04-10T13:20:54Z,42.805,6.029,13.2999,4.60038,2470.507,2022-4-10T15:22:32Z
2022-04-10T13:23:57Z,42.805,6.029,13.2998,4.60036,2470.483,2022-4-10T15:25:35Z
2022-04-10T13:27:00Z,42.805,6.029,13.3001,4.60037,2470.46,2022-4-10T15:28:38Z
2022-04-10T13:30:03Z,42.805,6.029,13.2998,4.60035,2470.474,2022-4-10T15:31:41Z
2022-04-10T13:33:06Z,42.805,6.029,13.2998,4.60035,2470.497,2022-4-10T15:34:44Z
2022-04-10T13:36:09Z,42.805,6.029,13.2996,4.60035,2470.544,2022-4-10T15:37:48Z
2022-04-10T13:39:13Z,42.805,6.029,13.2997,4.60036,2470.437,2022-4-10T15:40:51Z
2022-04-10T13:42:16Z,42.805,6.029,13.3003,4.60035,2470.497,2022-4-10T15:43:54Z
2022-04-10T13:45:19Z,42.805,6.029,13.2995,4.60033,2470.474,2022-4-10T15:46:57Z
2022-04-10T13:48:22Z,42.805,6.029,13.2998,4.60035,2470.46,2022-4-10T15:50:00Z
2022-04-10T13:51:25Z,42.805,6.029,13.3001,4.60035,2470.46,2022-4-10T15:53:03Z
2022-04-10T13:54:28Z,42.805,6.029,13.2998,4.60035,2470.483,2022-4-10T15:56:06Z
2022-04-10T13:57:31Z,42.805,6.029,13.2997,4.60033,2470.474,2022-4-10T15:59:09Z
2022-04-10T14:00:35Z,42.805,6.029,13.3000,4.60034,2470.46,2022-4-10T16:02:13Z
2022-04-10T14:03:38Z,42.805,6.029,13.2998,4.60034,2470.483,2022-4-10T16:05:16Z
2022-04-10T14:06:41Z,42.805,6.029,13.3000,4.60033,2470.46,2022-4-10T16:08:19Z
2022-04-10T14:09:44Z,42.805,6.029,13.2997,4.60035,2470.474,2022-4-10T16:11:22Z
2022-04-10T14:12:47Z,42.805,6.029,13.3000,4.60035,2470.474,2022-4-10T16:14:25Z
2022-04-10T14:15:50Z,42.805,6.029,13.3001,4.60033,2470.474,2022-4-10T16:17:28Z
2022-04-10T14:18:53Z,42.805,6.029,13.3000,4.60036,2470.446,2022-4-10T16:20:31Z
2022-04-10T14:21:56Z,42.805,6.029,13.2998,4.60035,2470.52,2022-4-10T16:23:34Z
2022-04-10T14:24:59Z,42.805,6.029,13.3000,4.60035,2470.497,2022-4-10T16:26:38Z
2022-04-10T14:28:03Z,42.805,6.029,13.2997,4.60035,2470.507,2022-4-10T16:29:41Z
2022-04-10T14:31:06Z,42.805,6.029,13.3000,4.60036,2470.46,2022-4-10T16:32:44Z
2022-04-10T14:34:09Z,42.805,6.029,13.2998,4.60034,2470.483,2022-4-10T16:35:47Z
2022-04-10T14:37:12Z,42.805,6.029,13.3000,4.60034,2470.437,2022-4-10T16:38:50Z
2022-04-10T14:40:15Z,42.805,6.029,13.2999,4.60034,2470.483,2022-4-10T16:41:53Z
2022-04-10T14:43:18Z,42.805,6.029,13.2998,4.60036,2470.437,2022-4-10T16:44:56Z
2022-04-10T14:46:21Z,42.805,6.029,13.2997,4.60036,2470.45,2022-4-10T16:47:59Z
2022-04-10T14:49:25Z,42.805,6.029,13.3000,4.60036,2470.474,2022-4-10T16:51:03Z
2022-04-10T14:52:28Z,42.805,6.029,13.2997,4.60036,2470.46,2022-4-10T16:54:06Z
2022-04-10T14:55:31Z,42.805,6.029,13.2998,4.60037,2470.46,2022-4-10T16:57:09Z
2022-04-10T14:58:34Z,42.805,6.029,13.2999,4.60035,2470.446,2022-4-10T17:00:12Z
2022-04-10T15:01:37Z,42.805,6.029,13.3000,4.60035,2470.497,2022-4-10T17:03:15Z
2022-04-10T15:04:40Z,42.805,6.029,13.3001,4.60036,2470.483,2022-4-10T17:06:18Z
2022-04-10T15:07:43Z,42.805,6.029,13.3000,4.60037,2470.46,2022-4-10T17:09:21Z
2022-04-10T15:10:46Z,42.805,6.029,13.3000,4.60037,2470.474,2022-4-10T17:12:24Z